Flag for South Africa Weather past 2 weeks in Stellenbosch, South Africa

Now
59 °F

Passing clouds.


Feels Like: 59 °F
Forecast: 54 / 78 °F
Wind: 2 mph from North

Location: Cape Town International Airport

Current Time: Oct 23, 2014 at 12:50:37 AM

Latest Report: Oct 23, 2014 at 12:00 AM


Visibility: 4 mi

Pressure: 30.01 "Hg

Humidity: 94%

Dew point: 57 °F

Location of StellenboschLocation

Historic Weather in Stellenbosch — Graph

°F

Stellenbosch temperature yesterday

Maximum temperature yesterday: 73 °F (at 3:00 PM)
Minimum temperature yesterday: 55 °F (at 1:00 AM)
Average temperature yesterday: 62 °F

Past Weeks' High & Low Weather Summary

 TemperatureHumidityPressure
High82 °F (Oct 13, 3:00 PM)94% (Oct 8, 12:00 AM)30.27 "Hg (Oct 8, 12:00 AM)
Low45 °F (Oct 9, 6:00 AM)24% (Oct 18, 11:00 AM)29.59 "Hg (Oct 9, 10:00 AM)
Average64 °F67%30.05 "Hg
* Reported Oct 7 11:00 PM — Oct 22 11:00 PM, Stellenbosch, Weather by CustomWeather, © 2014

Note: Actual official high and low records may vary slightly from our data, if they occured in-between our weather recording intervals... More about our weather records

Advertising

Stellenbosch weather history for previous 24 hours

 ConditionsComfort  
Time TempWeatherWind HumidityBarometerVisibility
11:00 PM
Oct 22
61 °FPassing clouds.6 mph88%30.01 "Hg4 mi
10:00 PM61 °FPassing clouds.5 mph88%30.01 "Hg5 mi
9:00 PM61 °FPassing clouds.6 mph88%29.98 "Hg5 mi
8:00 PM59 °FPassing clouds.7 mph94%29.98 "HgN/A
7:00 PM61 °FPassing clouds.8 mph88%29.95 "HgN/A
6:00 PM66 °FSunny.8 mph73%29.95 "Hg10 mi
5:00 PM70 °FSunny.8 mph64%29.95 "Hg10 mi
4:00 PM73 °FPassing clouds.6 mph61%29.95 "HgN/A
3:00 PM73 °FPassing clouds.5 mph57%29.98 "HgN/A
2:00 PM72 °FPassing clouds.5 mph61%29.98 "HgN/A
1:00 PM70 °FPassing clouds.8 mph64%30.01 "HgN/A
12:00 PM66 °FPassing clouds.10 mph68%30.01 "HgN/A
11:00 AM66 °FScattered clouds.14 mph68%30.04 "HgN/A
10:00 AM63 °FPartly sunny.9 mph77%30.04 "HgN/A
8:00 AM57 °FFog.9 mph94%30.01 "Hg1 mi
7:00 AM55 °FLow clouds.7 mph94%30.01 "Hg1 mi
6:00 AM55 °FFog.8 mph94%29.98 "Hg1 mi
5:00 AM55 °FFog.10 mph94%29.98 "Hg1 mi
4:00 AM55 °FFog.10 mph94%29.98 "Hg1 mi
3:00 AM55 °FFog.7 mph94%29.98 "Hg0 mi
2:00 AM57 °FClear.6 mph94%29.98 "Hg10 mi
1:00 AM55 °FClear.No wind94%30.01 "Hg10 mi
12:00 AM57 °FLight fog.1 mph94%30.01 "HgN/A
Weather by CustomWeather, © 2014

See weather overviewHow to use our weather pages